COSMOS 1275 DEB, 12695

Orbit data source: Space-Track

COSMOS 1275 DEB, 12695 is space debris in LEO originally from a launch on Thu, 04 Jun 1981 UTC launched from the Plesetsk Missile And Space Complex (PKMTR). Debris objects in space refer to the collection of defunct objects orbiting the Earth. Examples of debris include non-operational satellites, rocket bodies, and fragments generated from explosions, collisions, or faulty payload assembly.

Loading next visibility...
Identifier
12695, 1981-053AP
Orbit
LEO
Last TLE update
19 hours ago
Origin
Manufacturer
Unknown
Mission
Spacecraft
Bus & Motor
Unknown
Mass
Unknown
Launch date (UTC)
1981-06-04 (44 years ago)
Launch vehicle
Unknown
Launch site
Plesetsk Missile And Space Complex (PKMTR)
Object type
Payload
Rocket body
Debris
Shape & HBR
Unknown
Radar Cross Section
Small (<0.1 m²)

Expand to show TLE details & history

TLE from 19 hours ago
0 COSMOS 1275 DEB
1 12695U 81053AP  25128.46825087  .00002418  00000-0  24618-2 0  9996
2 12695  83.0107 198.3456 0110158  84.0714 296.9083 13.73728794173740
Epoch: 2025-05-08T11:14Z
Definitive object data (Epoch: 2025-05-08T11:14:16.875Z)
Latitude
19.69475°
Longitude
165.73894°
Altitude
952.678 km
Speed
7.395 km/s
True Right ascension
13h 23m 23s
True Declination
19° 35' 20"
Sunlit
Object was in full shadow at TLE epoch
Visualization TLE readout
Latitude
-37.0895°
Longitude
157.36837°
Altitude
1,038.943 km
Speed
7.312 km/s
Apparent Right ascension
09h 16m 32s
Apparent Declination
-74° 37' 32"
Sunlit
Object is in full shadow
Visualization observer readout
Local Sidereal Time
14:20:10
Azimuth
198.225° SSW
Elevation
-34.694°
Doppler factor
1
Orbital elements
Apogee altitude
1,064.455 km
Perigee altitude
902.269 km
Semi-major axis
7,361.499 km
Eccentricity
0.0110158
Inclination
83.0107°
RAAN
198.3456°
Arg. of periapsis
84.0714°
True anomaly
295.77567°
Mean anomaly
296.9083°
Eccentric anomaly
296.34268°
Mean motion
3.43632 °/min
BSTAR
0.0024618
Orbital period
104.76 mins
Loading maneuver chart data...
Loading SW <> Apogee altitude chart data...
Loading historical data...
Loading historical data...
Loading historical data...
Loading historical data...
Loading historical data...
Loading historical data...
Loading historical data...

COSMOS 1275 DEB Visibility forecast

Observer location: undefined°, undefined°

Span
Click to sort rows by Start time (UTC) header in descending order
Start Az.
Max El. time (UTC)
Max El. Az.
Max El.
End time (UTC)
End Az.
8 mins2025-05-09 06:30:22.894Z237.224° WSW2025-05-09 06:34:22.894Z283.497° WNW22.615°2025-05-09 06:38:22.894Z334.063° NNW
9 mins2025-05-09 15:42:22.894Z19.893° NNE2025-05-09 15:46:22.894Z79.504° E30.141°2025-05-09 15:51:22.894Z139.671° SSE
8 mins2025-05-09 17:28:22.894Z319.762° NNW2025-05-09 17:31:22.894Z278.073° WNW27.095°2025-05-09 17:36:22.894Z216.087° SW
11 mins2025-05-10 05:11:22.894Z183.922° SSW2025-05-10 05:17:22.894Z61.975° ENE44.952°2025-05-10 05:22:22.894Z7.704° NNE
|